Selinsgrove, PA

6:14 AM EST on December 15, 2019 (GMT -0500)
Penn Valley

Weather History for KSEG - October, 2019

Change the Weather History Date:

Thursday, October 24, 2019

  Actual Average (KIPT) Record (KIPT)
Temperature  
Mean Temperature 50 °F -  
Max Temperature 66 °F 57 °F 77 °F (1963)
Min Temperature 33 °F 37 °F 20 °F (1969)
Degree Days  
Heating Degree Days 16    
Moisture  
Dew Point 36 °F    
Average Humidity 77    
Maximum Humidity 100    
Minimum Humidity 32    
Precipitation  
Precipitation 0.00 in - - ()
Sea Level Pressure  
Sea Level Pressure 30.29 in    
Wind  
Wind Speed 1 mph (South)    
Max Wind Speed 12 mph    
Max Gust Speed -    
Visibility 8 miles    
Events Fog    
Averages and records for this station are not official NWS values.
T = Trace of Precipitation, MM = Missing Value Source: NWS Daily Summary

Daily Weather History Graph

Daily Weather History Graph

Search for Another Location

Airport or City:

Astronomy

Oct. 24, 2019 Rise Set
Actual Time 7:28 AM EDT 6:14 PM EDT
Civil Twilight 7:00 AM EDT 6:42 PM EDT
Nautical Twilight 6:28 AM EDT 7:14 PM EDT
Astronomical Twilight 5:56 AM EDT 7:45 PM EDT
Moon 2:53 AM EDT (10/24) 4:42 PM EDT (10/24)
Length of Visible Light 11h 41m
Length of Day
10h 45m
Waning Crescent, 17% of the Moon is Illuminated
Oct 24
Waning Crescent
Oct 27
New
Nov 4
First Quarter
Nov 12
Full
Nov 19
Last Quarter

Hourly Weather History & Observations

Time (EDT) Temp. Windchill Dew Point Humidity Pressure Visibility Wind Dir Wind Speed Gust Speed Precip Events Conditions
12:53 AM 36.0 °F - 35.1 °F 97% 30.24 in 10.0 mi Calm Calm - N/A   Clear
1:53 AM 36.0 °F - 34.0 °F 93% 30.24 in 10.0 mi Calm Calm - N/A   Clear
2:53 AM 35.1 °F - 34.0 °F 96% 30.25 in 10.0 mi Calm Calm - N/A   Clear
3:53 AM 34.0 °F - 33.1 °F 96% 30.26 in 10.0 mi Calm Calm - N/A   Clear
4:53 AM 34.0 °F - 33.1 °F 96% 30.28 in 10.0 mi Calm Calm - N/A   Clear
5:53 AM 33.1 °F - 32.0 °F 96% 30.31 in 10.0 mi Calm Calm - N/A   Clear
6:53 AM 33.1 °F - 32.0 °F 96% 30.32 in 9.0 mi Calm Calm - N/A   Clear
7:51 AM 33.8 °F - 32.0 °F 93% 30.32 in 7.0 mi Calm Calm - N/A   Scattered Clouds
7:53 AM 33.1 °F - 32.0 °F 96% 30.33 in 7.0 mi Calm Calm - N/A   Mostly Cloudy
8:24 AM 35.1 °F - 34.0 °F 96% 30.32 in 1.2 mi Calm Calm - N/A   Overcast
8:31 AM 36.0 °F - 36.0 °F 100% 30.32 in 0.2 mi Calm Calm - N/A Fog Fog
8:53 AM 37.9 °F - 37.9 °F 100% 30.34 in 0.8 mi Calm Calm - N/A   Overcast
8:56 AM 37.9 °F - 37.9 °F 100% 30.33 in 1.2 mi Calm Calm - N/A   Mostly Cloudy
8:59 AM 37.9 °F - 37.9 °F 100% 30.33 in 3.0 mi Calm Calm - N/A   Mostly Cloudy
9:12 AM 39.0 °F - 39.0 °F 100% 30.33 in 8.0 mi Calm Calm - N/A   Scattered Clouds
9:53 AM 44.1 °F - 39.9 °F 85% 30.34 in 10.0 mi Calm Calm - N/A   Clear
10:53 AM 53.1 °F - 39.9 °F 61% 30.32 in 10.0 mi SSE 4.6 mph - N/A   Clear
11:53 AM 60.1 °F - 37.9 °F 44% 30.32 in 10.0 mi Variable 3.5 mph - N/A   Clear
12:53 PM 64.0 °F - 37.9 °F 38% 30.30 in 10.0 mi South 5.8 mph - N/A   Clear
1:53 PM 66.0 °F - 35.1 °F 32% 30.27 in 10.0 mi Variable 6.9 mph - N/A   Clear
2:53 PM 66.0 °F - 35.1 °F 32% 30.25 in 10.0 mi South 11.5 mph - N/A   Clear
3:53 PM 66.9 °F - 36.0 °F 32% 30.25 in 10.0 mi SSE 10.4 mph - N/A   Clear
4:53 PM 66.0 °F - 37.0 °F 34% 30.25 in 10.0 mi South 8.1 mph - N/A   Clear
5:53 PM 63.0 °F - 37.0 °F 38% 30.25 in 10.0 mi South 5.8 mph - N/A   Clear
6:53 PM 59.0 °F - 37.0 °F 44% 30.26 in 10.0 mi South 3.5 mph - N/A   Clear
7:53 PM 50.0 °F - 41.0 °F 71% 30.27 in 10.0 mi Calm Calm - N/A   Clear
8:53 PM 50.0 °F - 39.9 °F 68% 30.27 in 10.0 mi Calm Calm - N/A   Clear
9:53 PM 44.1 °F - 41.0 °F 89% 30.30 in 10.0 mi Calm Calm - N/A   Clear
10:53 PM 44.1 °F 42.5 °F 41.0 °F 89% 30.30 in 10.0 mi NW 3.5 mph - N/A   Clear
11:53 PM 39.9 °F - 39.0 °F 97% 30.30 in 10.0 mi Calm Calm - N/A   Clear